Regional Weather Roundup
Issued by NWS State College, PA

Home | Current Version | Previous Version | Text Only | Print | Product List | Glossary On
Versions: 1 2 3 4 5 6 7 8 9 10 11 12 13 14 15 16 17 18 19 20 21 22 23 24 25 26 27 28 29 30 31 32 33 34 35 36 37 38 39 40 41 42 43 44 45 46 47 48 49 50
349
ASUS41 KCTP 121003
RWRCTP

REGIONAL WEATHER ROUNDUP
NATIONAL WEATHER SERVICE STATE COLLEGE PA
500 AM EST FRI FEB 12 2016

Note: "fair" indicates few or no clouds below 12,000 feet with no
significant weather and/or obstructions to visibility.

* = STATION THAT DOES NOT REPORT PRECIPITATION /E.G. RAIN...SNOW...ETC/
    THUNDER OR FOG.

PAZ002>004-007>009-013>016-020>023-029>032-121100-
WESTERN PENNSYLVANIA

CITY           SKY/WX    TMP DP  RH WIND       PRES   REMARKS
ERIE           LGT SNOW  14   5  67 SW10      30.13F WCI   1
MEADVILLE      CLEAR      6   0  76 VRB7      30.09F WCI  -6
FRANKLIN*      CLEAR      1  -6  71 SW7       30.12S WCI -11
NEW CASTLE     FAIR       1  -3  83 VRB3      30.17F
BEAVER COUNTY  NOT AVBL
BUTLER*        CLOUDY     1  -2  85 CALM      30.18F
PITTSBURGH INT CLOUDY     5  -2  72 CALM      30.16F
PITTSBURGH     CLEAR      8   1  73 S8        30.16F WCI  -4
INDIANA*       PTCLDY    -2  -6  84 CALM      30.19S
LATROBE        CLEAR      0  -2  92 CALM      30.19F
WASHINGTON CO* CLOUDY     0  -6  78 CALM      30.17S
$$

PAZ004>006-010>012-017>019-024>028-033>037-041-042-045-046-049>053-121100-
CENTRAL PENNSYLVANIA

CITY           SKY/WX    TMP DP  RH WIND       PRES   REMARKS
BRADFORD       FLURRIES   4   0  83 S5        30.03F WCI  -5
DUBOIS         PTCLDY     3   0  87 CALM      30.08F
CLEARFIELD     CLOUDY     6   1  80 SW3       30.14S
JOHNSTOWN      CLOUDY     4  -5  66 S5        30.06F WCI  -5
ALTOONA        CLEAR      6  -2  69 CALM      30.16F
STATE COLLEGE  CLEAR      5   2  86 SW3       30.17F
WILLIAMSPORT   PTCLDY    13   2  61 W7        30.22F WCI   3
SELINSGROVE    CLEAR      5   1  83 NW3       30.25F
FT INDIANTOWN  CLEAR     12   0  60 W3        30.25S
CAPITAL CITY   CLEAR     12   2  64 W6        30.27S WCI   3
HARRISBURG     CLEAR     14   2  58 NW6       30.27S WCI   5
YORK           CLOUDY    -7 -11  83 CALM      30.26F
$$

PAZ038>040-043-044-047-048-054-055-060>062-067>071-121100-
EASTERN PENNSYLVANIA

CITY           SKY/WX    TMP DP  RH WIND       PRES   REMARKS
SCRANTON       CLEAR      9  -2  61 SW6       30.17S WCI  -1
MOUNT POCONO   CLEAR      3  -5  69 NW8       30.06S WCI -10
ALLENTOWN      PTCLDY    13   0  56 W7        30.24S WCI   3
QUAKERTOWN*    MOSUNNY    9   1  72 W3        30.25R
READING        CLEAR     11  -1  58 W6        30.26R WCI   1
LANCASTER      CLOUDY    10   1  67 SW5       30.27S WCI   2
COATESVILLE    MOSUNNY   10   1  67 NW6       30.25S WCI   1
POTTSTOWN      CLEAR     10  -1  61 CALM      30.28R
BLUE BELL        N/A     10   1  67 CALM      30.27R
DOYLESTOWN     CLEAR     11  -1  58 SW3       30.25R
WILLOW GROVE   NOT AVBL
NORTH PHILA    CLEAR     16   0  49 W6        30.30S WCI   7
PHILADELPHIA   PTCLDY    18  -1  43 W8        30.30S WCI   8
$$




USA.gov is the U.S. government's official web portal to all federal, state and local government web resources and services.